Location: Bailey Volunteer Fire Department
(33.4359°N, 96.1680°W)
Time: 17:52:04
(UTC+00:00)

SL-16 R/B - Pass Details

Date: 13 December 2025
Orbit: 841 x 845 km, 71.0° (Epoch: 14 January)

Event Time Altitude Azimuth Distance (km) Brightness Sun altitude
Exits shadow 12:50:00 - 307° (NW) 2,734 4.2 -6.5°
Reaches altitude 10° 12:51:04 10° 299° (WNW) 2,465 3.9 -6.3°
Maximum altitude 12:54:30 17° 261° (W) 2,025 3.7 -5.7°
Drops below altitude 10° 12:57:57 10° 223° (SW) 2,456 4.4 -5.0°
Sets 13:01:16 0° 203° (SSW) 3,386 5.4 -4.4°
